�������l�o���
Date,Time,MP-1(��Sv/h),MP-2(��Sv/h),MP-3(��Sv/h),MP-4(��Sv/h),MP-5(��Sv/h),MP-6(��Sv/h),MP-7(��Sv/h),MP-8(��Sv/h),����,����(m/s),���J
2022/06/04,00:00,0.557,0.811,0.526,0.989,0.700,0.339,0.585,0.552,�k,3.2,��
2022/06/04,00:10,0.556,0.811,0.524,0.986,0.699,0.339,0.585,0.553,�k,3.4,��
2022/06/04,00:20,0.557,0.811,0.525,0.988,0.699,0.339,0.585,0.552,�k�k��,3.2,��
2022/06/04,00:30,0.556,0.811,0.526,0.989,0.699,0.340,0.586,0.553,�k,2.8,��
2022/06/04,00:40,0.556,0.811,0.525,0.990,0.698,0.340,0.584,0.552,�k�k��,2.6,��
2022/06/04,00:50,0.555,0.812,0.525,0.989,0.701,0.339,0.587,0.552,�k,2.3,��
2022/06/04,01:00,0.555,0.812,0.525,0.988,0.698,0.339,0.586,0.553,�k�k��,1.9,��
2022/06/04,01:10,0.556,0.811,0.523,0.988,0.701,0.338,0.585,0.552,�k�k��,1.7,��
2022/06/04,01:20,0.555,0.810,0.523,0.988,0.701,0.340,0.585,0.553,�k�k��,2.0,��
2022/06/04,01:30,0.555,0.810,0.526,0.989,0.699,0.339,0.585,0.553,�k�k��,2.3,��
2022/06/04,01:40,0.557,0.811,0.525,0.990,0.700,0.340,0.585,0.553,�k,1.5,��
2022/06/04,01:50,0.555,0.812,0.525,0.988,0.698,0.338,0.585,0.552,�k�k��,2.3,��
2022/06/04,02:00,0.556,0.812,0.525,0.988,0.699,0.339,0.585,0.551,�k�k��,2.0,��
2022/06/04,02:10,0.556,0.812,0.525,0.989,0.699,0.341,0.585,0.553,�k�k��,2.8,��
2022/06/04,02:20,0.556,0.812,0.525,0.988,0.699,0.340,0.586,0.552,�k�k��,2.3,��
2022/06/04,02:30,0.556,0.812,0.525,0.988,0.700,0.339,0.586,0.553,�k�k��,2.9,��
2022/06/04,02:40,0.556,0.810,0.525,0.989,0.699,0.339,0.586,0.554,�k�k��,3.1,��
2022/06/04,02:50,0.557,0.809,0.525,0.989,0.702,0.340,0.586,0.552,�k�k��,2.9,��
2022/06/04,03:00,0.556,0.811,0.525,0.988,0.699,0.339,0.584,0.553,�k�k��,2.0,��
2022/06/04,03:10,0.556,0.811,0.525,0.990,0.698,0.340,0.587,0.551,�k��,2.0,��
2022/06/04,03:20,0.556,0.812,0.525,0.989,0.699,0.340,0.588,0.552,�k��,2.2,��
2022/06/04,03:30,0.556,0.811,0.525,0.988,0.700,0.338,0.586,0.554,�k��,2.2,��
2022/06/04,03:40,0.556,0.812,0.525,0.987,0.699,0.339,0.584,0.554,�k��,2.0,��
2022/06/04,03:50,0.556,0.812,0.523,0.988,0.699,0.340,0.585,0.554,�k��,2.6,��
2022/06/04,04:00,0.555,0.812,0.526,0.987,0.698,0.339,0.587,0.552,�k�k��,2.3,��
2022/06/04,04:10,0.555,0.812,0.526,0.988,0.699,0.339,0.586,0.552,�k��,2.8,��
2022/06/04,04:20,0.555,0.811,0.525,0.990,0.701,0.340,0.586,0.553,�k�k��,2.6,��
2022/06/04,04:30,0.555,0.811,0.526,0.989,0.698,0.338,0.585,0.552,�k�k��,2.3,��
2022/06/04,04:40,0.556,0.811,0.526,0.986,0.699,0.340,0.586,0.554,�k�k��,2.6,��
2022/06/04,04:50,0.555,0.812,0.525,0.988,0.699,0.339,0.586,0.552,�k�k��,3.1,��
2022/06/04,05:00,0.554,0.812,0.526,0.989,0.700,0.339,0.585,0.554,�k�k��,2.9,��
2022/06/04,05:10,0.556,0.810,0.524,0.989,0.700,0.338,0.586,0.553,�k�k��,2.0,��
2022/06/04,05:20,0.556,0.811,0.526,0.989,0.700,0.339,0.586,0.553,�k��,1.2,��
2022/06/04,05:30,0.557,0.810,0.525,0.989,0.700,0.340,0.587,0.553,�k��,1.2,��
2022/06/04,05:40,0.557,0.812,0.524,0.990,0.699,0.338,0.585,0.553,�k�k��,1.7,��
2022/06/04,05:50,0.555,0.812,0.526,0.989,0.700,0.339,0.587,0.552,�k�k��,2.0,��
2022/06/04,06:00,0.556,0.811,0.526,0.992,0.700,0.338,0.587,0.553,�k�k��,2.2,��
2022/06/04,06:10,0.555,0.812,0.526,0.988,0.699,0.339,0.588,0.553,�k�k��,2.2,��
2022/06/04,06:20,0.557,0.812,0.524,0.990,0.701,0.339,0.587,0.553,�k��,1.5,��
2022/06/04,06:30,0.557,0.811,0.525,0.989,0.700,0.339,0.588,0.552,�k�k��,1.5,��
2022/06/04,06:40,0.557,0.809,0.525,0.991,0.700,0.339,0.586,0.554,�k,1.7,��
2022/06/04,06:50,0.557,0.811,0.526,0.990,0.699,0.340,0.587,0.554,���k��,1.7,��
2022/06/04,07:00,0.556,0.811,0.525,0.990,0.701,0.338,0.586,0.554,���쓌,1.4,��
2022/06/04,07:10,0.556,0.810,0.526,0.992,0.701,0.339,0.586,0.553,��,2.3,��
2022/06/04,07:20,0.558,0.812,0.526,0.989,0.698,0.337,0.587,0.554,��,2.3,��
2022/06/04,07:30,0.557,0.810,0.526,0.992,0.700,0.338,0.587,0.554,��,2.3,��
2022/06/04,07:40,0.556,0.812,0.526,0.990,0.701,0.338,0.586,0.555,��,2.3,��
2022/06/04,07:50,0.555,0.810,0.526,0.992,0.702,0.338,0.586,0.552,���쓌,2.3,��
2022/06/04,08:00,0.556,0.814,0.526,0.993,0.701,0.337,0.585,0.553,���쓌,2.9,��
2022/06/04,08:10,0.557,0.815,0.527,0.992,0.700,0.339,0.584,0.552,�쓌,3.6,��
2022/06/04,08:20,0.556,0.815,0.528,0.989,0.702,0.339,0.585,0.551,�쓌,3.6,��
2022/06/04,08:30,0.556,0.812,0.528,0.992,0.702,0.337,0.584,0.552,�쓌,2.8,��
2022/06/04,08:40,0.557,0.815,0.526,0.990,0.701,0.338,0.586,0.551,�쓌,2.8,��
2022/06/04,08:50,0.557,0.816,0.527,0.992,0.702,0.339,0.583,0.552,�쓌,3.6,��
2022/06/04,09:00,0.557,0.814,0.526,0.992,0.700,0.339,0.585,0.552,�쓌,2.3,��
2022/06/04,09:10,0.558,0.815,0.529,0.990,0.701,0.338,0.584,0.552,�쓌,4.0,��
2022/06/04,09:20,0.558,0.814,0.529,0.990,0.701,0.339,0.585,0.552,���쓌,3.5,��
2022/06/04,09:30,0.558,0.816,0.525,0.990,0.704,0.339,0.586,0.552,�쓌,3.7,��
2022/06/04,09:40,0.560,0.815,0.527,0.992,0.705,0.338,0.584,0.552,���쓌,3.1,��
2022/06/04,09:50,0.559,0.814,0.529,0.991,0.702,0.340,0.586,0.553,���쓌,3.1,��
2022/06/04,10:00,0.559,0.817,0.529,0.992,0.703,0.338,0.585,0.554,���쓌,3.1,��
2022/06/04,10:10,0.559,0.817,0.529,0.993,0.704,0.340,0.586,0.552,���쓌,3.2,��
2022/06/04,10:20,0.560,0.816,0.529,0.992,0.704,0.339,0.585,0.553,��,3.4,��
2022/06/04,10:30,0.560,0.819,0.529,0.994,0.704,0.338,0.587,0.553,���k��,4.0,��
2022/06/04,10:40,0.560,0.820,0.529,0.995,0.705,0.340,0.585,0.554,���k��,3.3,��
2022/06/04,10:50,0.560,0.818,0.528,0.995,0.705,0.340,0.586,0.554,���k��,3.1,��
2022/06/04,11:00,0.559,0.819,0.529,0.993,0.706,0.340,0.587,0.553,���k��,3.3,��
2022/06/04,11:10,0.560,0.820,0.531,0.994,0.705,0.339,0.586,0.553,��,2.6,��
2022/06/04,11:20,0.561,0.820,0.529,0.992,0.708,0.340,0.588,0.553,���k��,2.6,��
2022/06/04,11:30,0.561,0.821,0.530,0.992,0.709,0.339,0.586,0.553,���k��,3.1,��
2022/06/04,11:40,0.561,0.822,0.529,0.992,0.706,0.339,0.587,0.554,���쓌,1.7,��
2022/06/04,11:50,0.561,0.822,0.531,0.992,0.707,0.339,0.588,0.554,��,2.9,��
2022/06/04,12:00,0.562,0.821,0.529,0.993,0.709,0.340,0.586,0.554,���쓌,2.6,��
2022/06/04,12:10,0.560,0.820,0.530,0.992,0.707,0.339,0.587,0.553,��,2.6,��
2022/06/04,12:20,0.562,0.822,0.532,0.993,0.708,0.341,0.589,0.556,���쓌,2.6,��
2022/06/04,12:30,0.562,0.822,0.532,0.994,0.709,0.342,0.588,0.555,�쓌,2.2,��
2022/06/04,12:40,0.562,0.823,0.531,0.991,0.709,0.341,0.588,0.554,�쓌,2.9,��
2022/06/04,12:50,0.562,0.824,0.531,0.992,0.707,0.341,0.588,0.555,��쓌,3.4,��
2022/06/04,13:00,0.564,0.824,0.533,0.994,0.709,0.341,0.590,0.554,��쓌,3.6,��
2022/06/04,13:10,0.563,0.824,0.531,0.994,0.708,0.339,0.589,0.554,��쓌,4.0,��
2022/06/04,13:20,0.562,0.824,0.531,0.994,0.709,0.341,0.589,0.554,��쓌,4.1,��
2022/06/04,13:30,0.563,0.825,0.531,0.995,0.709,0.341,0.588,0.554,��쓌,4.3,��
2022/06/04,13:40,0.564,0.822,0.531,0.993,0.710,0.341,0.589,0.555,��쓌,5.2,��
2022/06/04,13:50,0.565,0.824,0.533,0.993,0.710,0.342,0.590,0.555,��쓌,4.5,��
2022/06/04,14:00,0.564,0.824,0.532,0.995,0.711,0.340,0.589,0.554,��쓌,4.9,��
2022/06/04,14:10,0.565,0.823,0.532,0.995,0.711,0.341,0.587,0.554,��쓌,4.6,��
2022/06/04,14:20,0.563,0.826,0.534,0.996,0.713,0.341,0.588,0.556,��쓌,5.4,��
2022/06/04,14:30,0.565,0.825,0.534,0.997,0.711,0.342,0.588,0.555,��쓌,5.6,��
2022/06/04,14:40,0.564,0.825,0.532,0.995,0.711,0.342,0.588,0.555,��쓌,5.1,��
2022/06/04,14:50,0.564,0.826,0.534,0.996,0.711,0.341,0.587,0.555,��쓌,4.6,��
2022/06/04,15:00,0.564,0.825,0.533,0.995,0.712,0.341,0.587,0.555,��쓌,5.2,��
2022/06/04,15:10,0.564,0.825,0.532,0.995,0.712,0.339,0.587,0.555,��쓌,5.5,��
2022/06/04,15:20,0.565,0.828,0.534,0.998,0.711,0.341,0.587,0.554,��쓌,5.4,��
2022/06/04,15:30,0.563,0.827,0.533,0.994,0.713,0.340,0.587,0.554,��쓌,5.5,��
2022/06/04,15:40,0.565,0.826,0.534,0.995,0.712,0.340,0.588,0.555,��쓌,5.2,��
2022/06/04,15:50,0.565,0.824,0.534,0.997,0.712,0.341,0.586,0.553,��쓌,4.1,��
2022/06/04,16:00,0.566,0.825,0.534,0.996,0.713,0.340,0.586,0.554,��쓌,4.8,��
2022/06/04,16:10,0.564,0.825,0.533,0.996,0.711,0.340,0.587,0.555,��쓌,4.3,��
2022/06/04,16:20,0.565,0.825,0.534,0.997,0.711,0.340,0.586,0.555,�쓌,3.1,��
2022/06/04,16:30,0.563,0.827,0.532,0.996,0.712,0.341,0.587,0.554,�쓌,3.7,��
2022/06/04,16:40,0.563,0.830,0.533,0.997,0.714,0.340,0.586,0.555,�쓌,3.9,��
2022/06/04,16:50,0.563,0.829,0.532,0.996,0.714,0.340,0.588,0.555,�쓌,3.7,��
2022/06/04,17:00,0.566,0.829,0.533,0.998,0.713,0.341,0.588,0.555,�쓌,3.4,��
2022/06/04,17:10,0.565,0.829,0.534,0.999,0.712,0.340,0.587,0.556,�쓌,3.3,��
2022/06/04,17:20,0.565,0.830,0.533,1.002,0.714,0.342,0.586,0.555,�쓌,3.1,��
2022/06/04,17:30,0.565,0.831,0.534,1.001,0.713,0.342,0.588,0.556,�쓌,2.6,��
2022/06/04,17:40,0.566,0.832,0.535,1.001,0.712,0.341,0.587,0.555,��쓌,3.9,��
2022/06/04,17:50,0.565,0.828,0.533,1.000,0.710,0.341,0.586,0.556,��쓌,3.9,��
2022/06/04,18:00,0.564,0.830,0.532,1.000,0.711,0.340,0.586,0.556,��쓌,3.6,��
2022/06/04,18:10,0.564,0.829,0.534,1.000,0.712,0.340,0.588,0.555,��쓌,3.0,��
2022/06/04,18:20,0.566,0.827,0.533,0.997,0.712,0.341,0.586,0.554,��쓌,4.0,��
2022/06/04,18:30,0.566,0.828,0.532,1.001,0.712,0.340,0.588,0.555,��쓌,4.3,��
2022/06/04,18:40,0.565,0.830,0.534,1.004,0.712,0.341,0.587,0.557,��,3.2,��
2022/06/04,18:50,0.566,0.832,0.536,1.000,0.713,0.342,0.586,0.557,��쓌,4.3,��
2022/06/04,19:00,0.566,0.831,0.535,1.002,0.712,0.341,0.587,0.556,��쓌,3.3,��
2022/06/04,19:10,0.569,0.829,0.535,1.002,0.713,0.342,0.590,0.556,��,3.5,��
2022/06/04,19:20,0.567,0.832,0.535,1.001,0.713,0.343,0.590,0.558,��,2.2,��
2022/06/04,19:30,0.566,0.832,0.536,1.002,0.714,0.343,0.590,0.557,-,CALM,��
2022/06/04,19:40,0.566,0.828,0.536,1.003,0.715,0.342,0.590,0.558,-,CALM,��
2022/06/04,19:50,0.568,0.831,0.535,1.001,0.716,0.343,0.589,0.557,��쐼,1.5,��
2022/06/04,20:00,0.568,0.831,0.536,1.001,0.715,0.344,0.591,0.555,��쐼,3.5,��
2022/06/04,20:10,0.566,0.830,0.536,1.002,0.716,0.343,0.590,0.556,��,3.9,��
2022/06/04,20:20,0.567,0.831,0.534,1.002,0.716,0.341,0.590,0.556,��쐼,3.2,��
2022/06/04,20:30,0.567,0.831,0.536,1.001,0.718,0.342,0.590,0.557,��,2.3,��
2022/06/04,20:40,0.566,0.829,0.536,1.001,0.714,0.343,0.591,0.556,��,1.5,��
2022/06/04,20:50,0.566,0.832,0.535,1.002,0.714,0.343,0.589,0.556,��,3.3,��
2022/06/04,21:00,0.567,0.831,0.535,1.002,0.714,0.342,0.592,0.556,��,2.8,��
2022/06/04,21:10,0.567,0.829,0.536,1.001,0.714,0.344,0.590,0.557,��,3.2,��
2022/06/04,21:20,0.568,0.830,0.535,1.002,0.717,0.342,0.592,0.556,��,3.1,��
2022/06/04,21:30,0.567,0.827,0.535,1.001,0.716,0.342,0.591,0.556,��,3.1,��
2022/06/04,21:40,0.568,0.830,0.535,1.002,0.716,0.343,0.590,0.555,��쐼,2.3,��
2022/06/04,21:50,0.567,0.828,0.535,1.000,0.714,0.342,0.591,0.556,��쐼,2.3,��
2022/06/04,22:00,0.568,0.831,0.534,1.001,0.715,0.345,0.590,0.556,�쐼,1.5,��
2022/06/04,22:10,0.567,0.831,0.535,1.003,0.715,0.342,0.592,0.557,���쐼,1.4,��
2022/06/04,22:20,0.565,0.829,0.535,0.999,0.715,0.343,0.591,0.556,��,0.9,��
2022/06/04,22:30,0.567,0.830,0.534,1.000,0.716,0.344,0.591,0.557,���k��,1.1,��
2022/06/04,22:40,0.567,0.829,0.536,1.001,0.717,0.342,0.592,0.557,�k��,1.5,��
2022/06/04,22:50,0.567,0.830,0.535,1.001,0.715,0.342,0.593,0.558,�k��,1.7,��
2022/06/04,23:00,0.567,0.830,0.534,1.003,0.716,0.343,0.592,0.557,�k��,2.9,��
2022/06/04,23:10,0.565,0.831,0.536,1.003,0.715,0.344,0.590,0.557,�k��,2.9,��
2022/06/04,23:20,0.566,0.833,0.534,1.002,0.714,0.344,0.591,0.558,�k��,3.3,��
2022/06/04,23:30,0.568,0.828,0.536,1.002,0.716,0.342,0.591,0.558,�k��,2.9,��
2022/06/04,23:40,0.567,0.829,0.535,1.003,0.714,0.342,0.592,0.555,���k��,2.3,��
2022/06/04,23:50,0.566,0.827,0.536,1.001,0.715,0.344,0.591,0.557,�k��,1.7,��
